OBJECT G, 69588

Orbit data source: Space-Track

You're viewing an Uncataloged Satellite

Recently launched and/or uncataloged satellites may have evolving metadata. Metadata may include but not limited to: Owner, Maufacturer, Bus, Motor, and Mission.

OBJECT G, 69588 is a satellite owned by Centispace (CN) in LEO that was launched on Wed, 17 Jun 2026 UTC via a KUAIZHOU-11 launch vehicle from the Jiuquan Satellite Launch Center, China (JSC). Unknown objects in Earth's orbit typically refer to objects detected orbiting the Earth but have not yet been identified or cataloged. These objects could be anything from previously untracked satellites, spent rocket stages, debris from satellite collisions, or even natural meteoroids temporarily captured by Earth's gravity.

Loading next visibility...
Identifier
69588, 2026-138G
Orbit
LEO
Country
Flag of CNCN / PRC
Related business
Manufacturer
HITSAT
Mission
Operational spacecraft
Bus & Motor
WK01H, Unknown motor
Mass
140 kg wet, 140 kg dry
Launch date (UTC)
2026-06-17 (2 days ago)
Launch vehicle
KUAIZHOU-11
Launch site
Jiuquan Satellite Launch Center, China (JSC)
Object type
Unknown
Shape & HBR
Unknown
Radar Cross Section
RCS unknown

Expand to show TLE details & history
Last TLE update: 1 day ago

TLE from 1 day ago
0 OBJECT G
1 69588U 26138G   26169.48255398 -.00000095  00000-0  29348-4 0  9999
2 69588  55.1448 276.3650 0007050 279.9943  80.0236 14.16170753   205
Epoch: 2026-06-18T11:34Z
TLE epoch observation values (Epoch: 2026-06-18T11:34:52.663Z)
Latitude
-0.00002°
Longitude
-164.07969°
Altitude
838.509 km
Speed
7.435 km/s
True Right ascension
18h 25m 27s
True Declination
0° 00' 00"
Sunlit
Object was in full shadow at epoch
Visualization orbit readout
Latitude
Unknown
Longitude
Unknown
Altitude
Unknown
Speed
Unknown
Apparent Right ascension
Unknown
Apparent Declination
Unknown
Sunlit
N/A
Visualization observer readout
Local Sidereal Time
05:51:20
Azimuth
Unknown
Elevation
Unknown
Doppler factor
Unknown
Orbital elements
Apogee altitude
843.363 km
Perigee altitude
833.188 km
Semi-major axis
7,216.412 km
Eccentricity
0.00071
Inclination
55.1448°
RAAN
276.365°
Arg. of periapsis
279.9943°
True anomaly
80.10318°
Mean anomaly
80.0236°
Eccentric anomaly
80.06339°
Mean motion
3.54047 °/min
Orbital period
101.68 mins
BSTAR
0.000029348
Loading maneuver chart data...
Computing Atmospheric mass density...
Loading historical data...
Loading historical data...
Loading historical data...
Loading historical data...
Loading historical data...
Loading historical data...
Loading historical data...

Documentation

Showing up to 5 results
|